Location: Dilsberg
(49.3983°N, 8.8354°E)
Time: 15:46:29
(UTC+00:00)

Ariane Rocket - Pass Details

Date: 14 August 2025
Orbit: 755 x 763 km, 98.4° (Epoch: 18 May)

Event Time Altitude Azimuth Distance (km) Brightness Sun altitude
Exits shadow 20:25:43 23° 137° (SE) 1,571 4.0 -14.8°
Maximum altitude 20:28:41 54° 69° (ENE) 923 3.2 -15.1°
Drops below altitude 10° 20:33:35 10° 354° (N) 2,295 6.2 -15.7°
Enters shadow 21:32:15 -63° 169° (S) 12,189 9.1 -21.5°
